Terminal Aerodrome Forecast
Issued by NWS Houston/Galveston, TX

Home | Current Version | Previous Version | Text Only | Print | Product List | Glossary On
Versions: 1 2 3 4 5 6 7 8 9 10 11 12 13 14 15 16 17 18 19 20 21 22 23 24 25 26 27 28 29 30 31 32 33 34 35 36 37 38 39 40 41 42 43 44 45 46 47 48 49 50
000
FTUS44 KHGX 251921
TAFGLS
TAFGLS
TAF AMD
KGLS 251921Z 2519/2618 13016KT P6SM SCT250
     FM252100 14015G25KT P6SM VCSH FEW050 BKN250
      TEMPO 2522/2602 TSRA BKN050CB
     FM260300 18015KT P6SM SCT030
     FM261500 17014KT P6SM BKN015=

USA.gov is the U.S. government's official web portal to all federal, state and local government web resources and services.